Location: *
(48.8780°N, 19.2358°E)
Time: 11:50:14
(UTC+00:00)

COSMOS 2406 - Pass Details

Date: 18 October 2019
Orbit: 842 x 865 km, 71.0° (Epoch: 13 November)

Event Time Altitude Azimuth Distance (km) Brightness Sun altitude
Rises 17:04:15 0° 330° (NNW) 3,458 6.8 -13.2°
Reaches altitude 10° 17:06:44 10° 327° (NNW) 2,516 6.1 -13.6°
Maximum altitude 17:12:28 67° 247° (WSW) 934 3.6 -14.5°
Drops below altitude 10° 17:18:08 10° 166° (SSE) 2,488 5.5 -15.5°
Sets 17:20:35 0° 163° (SSE) 3,417 6.2 -15.9°
